KC7MRQ Weather Reports


Display with metric or nautical units.
time (UTC)temp
F
wind
direction
speed
MPH
gust
MPH
rain 1hr
in
rain 24hr
in
rain mn
in
humidity
%
barometer
mb
20260502230051 62 30 12.0 17.0 0.00 0.00 0.00 36 1011.8
20260502224557 62 10 6.0 14.0 0.00 0.00 0.00 36 1011.8
20260502223048 62 50 8.0 15.0 0.00 0.00 0.00 34 1012.0
20260502221552 62 41 4.0 10.0 0.00 0.00 0.00 34 1012.2
20260502220049 62 5 9.0 12.0 0.00 0.00 0.00 34 1012.4
20260502214547 62 350 9.0 16.0 0.00 0.00 0.00 34 1012.5
20260502213041 62 24 7.0 15.0 0.00 0.00 0.00 32 1012.8
20260502211541 63 23 7.0 15.0 0.00 0.00 0.00 33 1012.8
20260502210040 63 24 8.0 16.0 0.00 0.00 0.00 33 1012.9
20260502204536 61 27 7.0 14.0 0.00 0.00 0.00 33 1013.2
20260502203035 60 16 8.0 16.0 0.00 0.00 0.00 35 1013.4
20260502201535 61 7 10.0 18.0 0.00 0.00 0.00 36 1013.4
20260502200032 60 22 10.0 15.0 0.00 0.00 0.00 39 1013.6
20260502194534 61 345 10.0 19.0 0.00 0.00 0.00 35 1013.6
20260502193030 61 13 11.0 17.0 0.00 0.00 0.00 35 1013.8
20260502191531 61 64 12.0 16.0 0.00 0.00 0.00 34 1013.9
20260502190028 60 61 4.0 10.0 0.00 0.00 0.00 33 1014.1
20260502184523 60 119 3.0 12.0 0.00 0.00 0.00 34 1014.3
20260502183022 59 79 6.0 12.0 0.00 0.00 0.00 34 1014.6
20260502181518 58 54 7.0 13.0 0.00 0.00 0.00 38 1014.6
20260502163003 55 34 9.0 13.0 0.00 0.00 0.00 42 1015.2
20260502161500 54 13 9.0 14.0 0.00 0.00 0.00 42 1015.4
20260502160132 54 11 9.0 15.0 0.00 0.00 0.00 41 1015.5
20260502151554 53 37 7.0 13.0 0.00 0.00 0.00 40 1016.0
20260502123107 40 345 13.0 19.0 0.00 0.00 0.00 53 1016.0
20260502121531 40 345 16.0 21.0 0.00 0.00 0.00 53 1015.8
20260502114528 40 345 13.0 19.0 0.00 0.00 0.00 52 1016.0
20260502113027 40 345 12.0 17.0 0.00 0.00 0.00 53 1016.0
20260502111530 40 345 13.0 19.0 0.00 0.00 0.00 53 1016.1
20260502110025 40 345 14.0 19.0 0.00 0.00 0.00 53 1016.0
20260502104521 40 345 15.0 20.0 0.00 0.00 0.00 52 1015.8
20260502103022 40 345 12.0 18.0 0.00 0.00 0.00 53 1015.9
20260502101516 41 345 15.0 21.0 0.00 0.00 0.00 51 1015.8
20260502091508 43 345 4.0 6.0 0.00 0.00 0.00 47 1015.8
20260502070057 43 254 11.0 14.0 0.00 0.00 0.00 50 1016.1
20260502064553 44 231 13.0 17.0 0.00 0.00 0.00 48 1016.0
20260502063058 44 220 14.0 17.0 0.00 0.00 0.00 48 1015.8
20260502061547 46 214 16.0 20.0 0.00 0.00 0.00 46 1015.7
20260502060045 46 216 16.0 20.0 0.00 0.00 0.00 45 1015.6
20260502054544 46 345 12.0 15.0 0.00 0.00 0.00 46 1015.7
20260502053044 47 203 9.0 12.0 0.00 0.00 0.00 46 1015.8
20260502051542 48 216 12.0 17.0 0.00 0.00 0.00 45 1015.8
20260502050042 48 210 13.0 17.0 0.00 0.00 0.00 44 1015.7
20260502044544 49 210 12.0 16.0 0.00 0.00 0.00 43 1015.8
20260502043046 50 208 12.0 16.0 0.00 0.00 0.00 41 1015.8
20260502041546 51 208 9.0 15.0 0.00 0.00 0.00 40 1015.9
20260502040040 51 208 7.0 9.0 0.00 0.00 0.00 39 1015.9
20260502034540 52 217 7.0 9.0 0.00 0.00 0.00 38 1015.8
20260502033045 51 229 5.0 9.0 0.00 0.00 0.00 36 1015.7
20260502031538 52 345 4.0 6.0 0.00 0.00 0.00 35 1015.6
20260502030038 52 345 1.0 6.0 0.00 0.00 0.00 35 1015.4
20260502024545 54 345 7.0 10.0 0.00 0.00 0.00 34 1015.0
20260502023037 56 221 6.0 9.0 0.00 0.00 0.00 32 1014.8
20260502021536 59 206 4.0 6.0 0.00 0.00 0.00 28 1014.7
20260502020036 61 197 5.0 8.0 0.00 0.00 0.00 25 1014.8
20260502014536 63 220 5.0 10.0 0.00 0.00 0.00 23 1014.8
20260502013034 65 297 2.0 5.0 0.00 0.00 0.00 22 1014.8
20260502011533 66 277 4.0 6.0 0.00 0.00 0.00 20 1014.9
20260502010046 65 285 5.0 10.0 0.00 0.00 0.00 16 1015.0
20260502004547 66 302 6.0 16.0 0.00 0.00 0.00 15 1015.2
20260502003028 66 277 3.0 13.0 0.00 0.00 0.00 15 1015.2
20260502001532 66 138 1.0 9.0 0.00 0.00 0.00 15 1015.2
20260502000029 66 251 4.0 7.0 0.00 0.00 0.00 16 1015.4
20260501234523 66 354 3.0 7.0 0.00 0.00 0.00 20 1015.4
20260501233023 66 119 4.0 9.0 0.00 0.00 0.00 19 1015.4
20260501231522 67 83 3.0 8.0 0.00 0.00 0.00 20 1015.5